Torna al catalogo

KUIPER-00040

AttivoComunicazioniLEO
NORAD 64501·PAYLOAD·🇺🇸 United States

Lanciato Jun 23, 2025 da Cape Canaveral Space Force Station

Loading…

Prossimi Passaggi (prossime 24 ore)

TLE

AggiornatoSource: CelesTrak SupGP

Epoca: Sep 14, 2026, 19:04 UTC

1 64501C 25134B   26257.79509259 -.00002822  00000+0 -36941-3 0  2577
2 64501  51.8964 126.9552 0001175 100.3087 210.4396 14.79934501    13

Traccia KUIPER-00040 in tempo reale con AllMySat

Download on the App Store